Left ArrowRight Arrow

Hourly Observations for August 8, 2017

Temp ( °F °C ) Dew Point ( °F °C ) Humidity (%) Winds ( mph kmh ) Pressure ( in mb ) Visibility ( mi km ) Precip ( " mm )
12:15 am 00:15 Mostly Cloudy with Light Rain 73 22.8 72 22.2 96 96 NW 12 19 30.00 1016 10 16 0.00 0.03
12:53 am 00:53 Cloudy 72 22.2 71 21.7 97 97 ENE 6 9 30.01 1016 10 16 0.00 0.03
1:13 am 01:13 Cloudy 72 22.2 71 21.7 97 97 NE 3 6 30.00 1016 10 16 0.00 0.00
1:38 am 01:38 Cloudy with Heavy Rain 71 21.7 70 21.1 96 96 WSW 3 6 30.00 1016 2 3 0.00 0.00
1:53 am 01:53 Cloudy with Light Rain 71 21.7 70 21.1 96 96 SE 3 6 30.01 1016 4 6 0.00 0.00
2:53 am 02:53 Mostly Cloudy 70 21.1 70 21.1 100 100 Calm 29.98 1015 10 16 0.00 0.03
3:53 am 03:53 Mostly Cloudy 70 21.1 70 21.1 100 100 Calm 29.97 1015 10 16 0.00 0.00
4:53 am 04:53 Mostly Cloudy with Light Rain 70 21.1 70 21.1 100 100 Calm 29.97 1015 10 16 0.00 0.03
5:53 am 05:53 Cloudy 71 21.7 71 21.7 100 100 NNE 3 6 29.97 1015 10 16 0.00 0.03
6:53 am 06:53 Cloudy with Light Rain 71 21.7 71 21.7 100 100 Calm 29.98 1015 9 14 0.00 0.03
7:23 am 07:23 Cloudy with Rain 70 21.1 70 21.1 100 100 WSW 6 9 30.00 1016 5 8 0.00 0.03
7:30 am 07:30 Cloudy with Heavy Rain 70 21.1 70 21.1 100 100 SW 5 7 30.00 1016 2 3 0.00 0.00
7:44 am 07:44 Cloudy with Heavy Rain 70 21.1 70 21.1 100 100 Calm 30.00 1016 2 2 0.00 0.00
7:49 am 07:49 Cloudy with Rain 70 21 70 21 100 100 Calm 30.00 1016 3 5 0.00 0.00
7:53 am 07:53 Cloudy with Rain 70 21.1 70 21.1 100 100 Calm 30.01 1016 3 5 0.00 0.00
8:53 am 08:53 Cloudy with Light Rain 71 21.7 71 21.7 100 100 Calm 30.03 1017 5 8 0.06 1.52
9:53 am 09:53 Cloudy with Light Rain 72 22.2 71 21.7 97 97 VRB 3 6 30.04 1017 10 16 0.03 0.76
10:24 am 10:24 Cloudy with Light Rain 72 22.2 69 20.6 91 91 NNE 5 7 30.03 1017 10 16 0.01 0.25
10:53 am 10:53 Cloudy with Light Rain 72 22.2 68 20 87 87 ENE 5 7 30.05 1018 10 16 0.01 0.25
11:22 am 11:22 Cloudy with Rain 70 21.1 69 20.6 97 97 E 3 6 30.09 1019 2 3 0.05 1.27
11:29 am 11:29 Cloudy with Light Rain 70 21.1 69 20.6 97 97 Calm 30.09 1019 3 5 0.05 1.27
11:53 am 11:53 Cloudy 71 21.7 70 21.1 96 96 Calm 30.06 1018 10 16 0.05 1.27
12:15 pm 12:15 Cloudy with Light Rain 71 21.7 70 21.1 96 96 Calm 30.06 1018 6 10 0.02 0.51
12:53 pm 12:53 Cloudy with Light Rain 71 21.7 71 21.7 100 100 Calm 30.06 1018 6 10 0.05 1.27
1:04 pm 13:04 Cloudy with Light Rain 72 22.2 71 21.7 97 97 Calm 30.06 1018 6 10 0.00 0.03
1:20 pm 13:20 Cloudy with Light Rain 72 22.2 71 21.7 97 97 NNW 3 6 30.06 1018 3 5 0.00 0.03
1:45 pm 13:45 Cloudy with Light Rain 71 21.7 71 21.7 100 100 Calm 30.06 1018 4 6 0.01 0.25
1:53 pm 13:53 Cloudy with Light Rain 71 21.7 71 21.7 100 100 WNW 3 6 30.05 1018 5 8 0.01 0.25
2:43 pm 14:43 Cloudy with Light Rain 72 22.2 72 22.2 100 100 Calm 30.03 1017 3 5 0.08 2.03
2:53 pm 14:53 Cloudy with Light Rain 72 22.2 72 22.2 100 100 SSW 3 6 30.04 1017 3 5 0.08 2.03
3:02 pm 15:02 Cloudy 72 22.2 72 22.2 100 100 SSW 3 6 30.03 1017 10 16 0.00 0.03
3:20 pm 15:20 Cloudy 73 22.8 72 22.2 96 96 Calm 30.03 1017 10 16 0.00 0.03
3:33 pm 15:33 Cloudy 73 22.8 72 22.2 96 96 Calm 30.03 1017 9 14 0.00 0.03
3:53 pm 15:53 Cloudy with Light Rain 73 22.8 72 22.2 96 96 SW 3 6 30.03 1017 5 8 0.00 0.03
4:18 pm 16:18 Cloudy 74 23.3 73 22.8 97 97 S 5 7 30.00 1016 10 16 0.00 0.03
4:30 pm 16:30 Cloudy 74 23.3 73 22.8 97 97 SSW 5 7 30.00 1016 9 14 0.00 0.03
4:37 pm 16:37 Cloudy 74 23.3 73 22.8 97 97 SSW 5 7 30.00 1016 10 16 0.00 0.03
4:53 pm 16:53 Cloudy 74 23.3 73 22.8 97 97 S 7 11 30.01 1016 10 16 0.00 0.03
5:04 pm 17:04 Cloudy 74 23.3 73 22.8 97 97 SSW 6 9 30.00 1016 10 16 0.00 0.00
5:37 pm 17:37 Cloudy 75 23.9 73 22.8 94 94 WSW 3 6 30.00 1016 10 16 0.00 0.00
5:53 pm 17:53 Cloudy 75 23.9 73 22.8 94 94 SSW 6 9 30.01 1016 10 16 0.00 0.00
6:53 pm 18:53 Cloudy 74 23.3 72 22.2 94 94 S 6 9 30.00 1016 10 16 0.00 0.00
7:15 pm 19:15 Cloudy 74 23.3 72 22.2 94 94 SSW 3 6 30.00 1016 10 16 0.00 0.00
7:53 pm 19:53 Mostly Cloudy 74 23.3 73 22.8 97 97 Calm 30.01 1016 10 16 0.00 0.00
8:16 pm 20:16 Mostly Cloudy 73 22.8 72 22.2 96 96 SW 3 6 30.00 1016 10 16 0.00 0.00
8:53 pm 20:53 Mostly Cloudy 73 22.8 72 22.2 96 96 SSW 3 6 30.03 1017 10 16 0.00 0.00
9:53 pm 21:53 Cloudy 73 22.8 73 22.8 100 100 S 5 7 30.05 1018 10 16 0.00 0.00
10:53 pm 22:53 Mostly Cloudy 73 22.8 72 22.2 96 96 SSE 3 6 30.05 1018 10 16 0.00 0.00
11:53 pm 23:53 Clear 72 22.2 72 22.2 100 100 Calm 30.06 1018 10 16 0.00 0.00

Powered by Vaisala Xweather